Find Starlink 32118

NORAD ID: 60280 Int'l Des: 2024-132 Owner: SPXS Country: US Constellation: starlink operational
LEOCIRCULAR

現在のビュー

3D地球を読み込み中...

About Starlink 32118

Starlink 32118 (NORAD 60280) is a starlink constellation satellite (v2 mini) launched Jul 28, 2024 by SPXS of US. It operates in LEO, CIRCULAR orbit with a mass of 730.00 kg.

次回通過

Passes for default location (London). Set your location on the main map for personalized predictions.

高度履歴

Loading altitude history...

軌道要素

1 60280U 24132C 26262.52233889 .00002839 00000-0 95136-4 0 9996
2 60280 53.1580 230.2126 0001170 68.5680 291.5447 15.34392633121261
Epoch: Sep 19, 2026 • Age: 34 hours

現在のステータス

高度 462.5 km
遠地点 / 近地点 N/A
速度 7.64 km/s
衛星直下点 16.75°N, 108.67°W
打ち上げ日 Jul 28, 2024
運用期間 2.1 years
タイプ internet

技術仕様

分類 Payload
質量 730.00 kg
乾燥質量 700.00 kg
長さ 0.30 m
スパン 29.00 m
形状 ? Box + pan
製造者 SPXS
バスタイプ Starlink V2M
フェーズステータス In Orbit
所有者/国 SPXS/US

Most Searched